sat.trackr.live / text

‹ back to catalog

STARLINK-5653

NORAD 55345 · 2023-013Q

PAYLOAD ACTIVE UNKNOWN

§ Identity

Operator
Country
US
Launch date
2023-01-26
Launch site
AFETR
Launch vehicle
Mass (kg)
RCS (m²)

Purposes: comms

External: N2YO · Heavens-Above · Gunter

§ Orbital elements

Epoch: 2026-05-25T05:19:33.664224Z

Period
94.27 min
Inclination
43.0027°
Eccentricity
0.0001204
Mean motion
15.27563939 rev/d
Perigee alt
482.3 km
Apogee alt
483.9 km
Semi-major
6,861.2 km
B*
-4.2926e-5
RAAN
216.8334°
Arg perigee
277.5321°
Mean anomaly
82.5393°
Rev number
18,354

§ Raw data

STARLINK-56531 55345U 23013Q   26145.22191741 -.00001442  00000+0 -42926-4 0  99952 55345  43.0027 216.8334 0001204 277.5321  82.5393 15.27563939183542

JSON: /api/v1/satellites/55345 · /tle

For live sub-satellite position, see the globe view (requires WebGL).

§ Visibility from observer

Set your observer location to see the next 7 days of passes ≥ 10°. The values pass through the URL so the page stays shareable.

No JS? Fill the form by hand. The geolocation button needs JavaScript.